Weather History for Pensacola, FL

Change the Weather History Date:

Friday, May 31, 2013

  Actual Average Record
Temperature  
Mean Temperature 82 °F 78 °F  
Max Temperature 87 °F 87 °F 98 °F (1951)
Min Temperature 77 °F 70 °F 47 °F (1889)
Cooling Degree Days 17 13  
Month to date cooling degree days 273 300  
Year to date cooling degree days 442 448  
Growing Degree Days 30 (Base 50)    
Moisture  
Dew Point 71 °F    
Average Humidity 72    
Maximum Humidity 82    
Minimum Humidity 61    
Precipitation  
Precipitation 0.00 in 0.15 in 4.25 in (1970)
Month to date precipitation 1.62 4.18  
Year to date precipitation 22.04 24.00  
Sea Level Pressure  
Sea Level Pressure 30.04 in    
Wind  
Wind Speed 14 mph (SE)    
Max Wind Speed 21 mph    
Max Gust Speed 26 mph    
Visibility 10 miles    
Events      
T = Trace of Precipitation, MM = Missing Value Source: NWS Daily Summary

Daily Weather History Graph

Daily Weather History Graph

Search for Another Location

Airport:

Trip Planner

Search our weather history database for the weather conditions in past years. The results will help you decide how hot, cold, wet, or windy it might be!

Date:

Astronomy

May. 31, 2013 Rise Set
Actual Time 5:47 AM CDT 7:46 PM CDT
Civil Twilight 5:20 AM CDT 8:13 PM CDT
Nautical Twilight 4:47 AM CDT 8:46 PM CDT
Astronomical Twilight 4:12 AM CDT 9:21 PM CDT
Moon 12:39 AM CDT (5/31) 12:40 PM CDT (5/31)
Length of Visible Light 14h 53m
Length of Day
13h 58m
Waning Gibbous, 51% of the Moon is Illuminated
May 31
Waning Gibbous
May 31
Last Quarter
Jun 8
New
Jun 16
First Quarter
Jun 23
Full

Hourly Weather History & Observations

Time (CDT) Temp. Heat Index Dew Point Humidity Pressure Visibility Wind Dir Wind Speed Gust Speed Precip Events Conditions
12:53 AM 79.0 °F - 71.1 °F 77% 30.06 in 10.0 mi SE 17.3 mph 21.9 mph N/A   Clear
1:53 AM 78.1 °F - 71.1 °F 79% 30.04 in 10.0 mi SE 13.8 mph - N/A   Clear
2:53 AM 79.0 °F - 71.1 °F 77% 30.03 in 10.0 mi SE 12.7 mph 21.9 mph N/A   Overcast
3:53 AM 79.0 °F - 71.1 °F 77% 30.01 in 10.0 mi SE 16.1 mph 21.9 mph N/A   Overcast
4:36 AM 78.8 °F - 71.6 °F 78% 30.01 in 10.0 mi SE 13.8 mph 21.9 mph N/A   Mostly Cloudy
4:53 AM 78.1 °F - 72.0 °F 81% 30.02 in 10.0 mi SE 16.1 mph 23.0 mph N/A   Overcast
5:00 AM 78.8 °F - 71.6 °F 78% 30.02 in 10.0 mi SE 11.5 mph 23.0 mph N/A   Overcast
5:08 AM 78.8 °F - 71.6 °F 78% 30.01 in 10.0 mi SE 16.1 mph 23.0 mph N/A   Overcast
5:35 AM 78.8 °F - 71.6 °F 78% 30.02 in 10.0 mi SE 13.8 mph 21.9 mph N/A   Overcast
5:53 AM 78.1 °F - 72.0 °F 81% 30.03 in 10.0 mi SE 16.1 mph - N/A   Mostly Cloudy
6:53 AM 78.1 °F - 71.1 °F 79% 30.06 in 10.0 mi SE 12.7 mph 21.9 mph N/A   Overcast
7:39 AM 78.8 °F - 71.6 °F 78% 30.07 in 10.0 mi SE 13.8 mph 20.7 mph N/A   Mostly Cloudy
7:53 AM 79.0 °F - 71.1 °F 77% 30.07 in 10.0 mi SE 15.0 mph 24.2 mph N/A   Mostly Cloudy
8:53 AM 80.1 °F 83.6 °F 71.1 °F 74% 30.08 in 10.0 mi SE 16.1 mph 19.6 mph N/A   Overcast
9:08 AM 80.6 °F 84.6 °F 71.6 °F 74% 30.08 in 10.0 mi SE 12.7 mph 20.7 mph N/A   Overcast
9:53 AM 82.0 °F 86.3 °F 71.1 °F 69% 30.09 in 10.0 mi ESE 16.1 mph - N/A   Overcast
10:53 AM 82.9 °F 87.5 °F 71.1 °F 67% 30.09 in 10.0 mi SE 18.4 mph 25.3 mph N/A   Overcast
11:00 AM 82.4 °F 87.2 °F 71.6 °F 70% 30.08 in 10.0 mi SE 17.3 mph 25.3 mph N/A   Overcast
11:53 AM 82.9 °F 87.5 °F 71.1 °F 67% 30.08 in 10.0 mi ESE 19.6 mph 25.3 mph N/A   Overcast
12:53 PM 82.9 °F 87.0 °F 70.0 °F 65% 30.07 in 10.0 mi SE 17.3 mph 24.2 mph N/A   Overcast
1:53 PM 84.9 °F 90.1 °F 71.1 °F 63% 30.06 in 10.0 mi SE 13.8 mph 21.9 mph N/A   Mostly Cloudy
2:53 PM 84.9 °F 89.4 °F 70.0 °F 61% 30.04 in 10.0 mi SE 11.5 mph 21.9 mph N/A   Clear
3:53 PM 84.9 °F 89.4 °F 70.0 °F 61% 30.04 in 10.0 mi SE 13.8 mph - N/A   Clear
4:53 PM 82.9 °F 87.0 °F 70.0 °F 65% 30.03 in 10.0 mi SSE 11.5 mph 20.7 mph N/A   Clear
5:53 PM 81.0 °F 84.9 °F 71.1 °F 72% 30.03 in 10.0 mi SE 11.5 mph - N/A   Partly Cloudy
6:53 PM 79.0 °F - 71.1 °F 77% 30.03 in 10.0 mi SE 10.4 mph - N/A   Partly Cloudy
7:53 PM 78.1 °F - 71.1 °F 79% 30.03 in 10.0 mi SE 9.2 mph - N/A   Partly Cloudy
8:53 PM 77.0 °F - 71.1 °F 82% 30.02 in 10.0 mi SE 11.5 mph - N/A   Partly Cloudy
9:53 PM 77.0 °F - 72.0 °F 84% 30.03 in 10.0 mi SE 10.4 mph - N/A   Clear
10:53 PM 77.0 °F - 72.0 °F 84% 30.02 in 10.0 mi SE 12.7 mph 19.6 mph N/A   Partly Cloudy
11:53 PM 77.0 °F - 71.1 °F 82% 30.01 in 10.0 mi SE 12.7 mph - N/A   Clear